Location: Bishop�s Knoyle
(51.0728°N, 2.1714°W)
Time: 13:34:47
(UTC+00:00)

BEESAT 2 - Pass Details

Date: 06 December 2021
Orbit: 498 x 513 km, 64.9° (Epoch: 24 January)

Event Time Altitude Azimuth Distance (km) Brightness Sun altitude
Exits shadow 05:18:22 64° 52° (NE) 579 ? -23.7°
Drops below altitude 10° 05:22:10 10° 128° (SE) 1,738 ? -23.1°
Sets 05:24:21 0° 132° (SE) 2,619 ? -22.8°
